INTELSAT 11 (IS-11)

Last updated on Fri Oct 11 2024 00:02:38 GMT+0000 (Coordinated Universal Time)

1 32253U 07044B 24284.39478285 -.00000262 00000+0 00000+0 0 9995 2 32253 1.9569 86.2649 0003224 129.1233 263.2561 1.00272001 62336
UTC large
Height (km)
Speed (km/s)
/
Latitude / Longitude
Inclination (degrees)
Orbital Period (minutes)
Azimuth
Elevation
Range (km)
Doppler Factor

Next 0 passes for location: London (51.5072 / 0.1276)

Sorry there are no passes over London.